This is the latest recevied weather packets stored in our database for station/object KD8FRE. If no packets are shown the sender has not sent any weather packets the latest 10 day(s).
| Time | Temp. | Humidity | Pressure | Rain* | Wind** | Luminosity | Snow |
|---|---|---|---|---|---|---|---|
| 1778020490 | 11.67° C | 50% | 1007.9 hPa | 0 mm | - | 53 W/m² | - |
| 1778020187 | 11.67° C | 48% | 1007.9 hPa | 0 mm | - | 59 W/m² | - |
| 1778019883 | 11.67° C | 49% | 1008 hPa | 0 mm | - | 57 W/m² | - |
| 1778019579 | 11.67° C | 47% | 1008.1 hPa | 0 mm | - | 65 W/m² | - |
| 1778019277 | 11.67° C | 49% | 1008.1 hPa | 0 mm | - | 63 W/m² | - |
| 1778018974 | 11.67° C | 47% | 1008 hPa | 0 mm | - | 62 W/m² | - |
| 1778018670 | 11.67° C | 47% | 1007.9 hPa | 0 mm | - | 71 W/m² | - |
| 1778018368 | 11.67° C | 48% | 1008.1 hPa | 0 mm | - | 83 W/m² | - |
| 1778018066 | 11.67° C | 51% | 1007.7 hPa | 0 mm | - | 68 W/m² | - |
| 1778017764 | 11.67° C | 49% | 1007.8 hPa | 0 mm | - | 68 W/m² | - |
| 1778017461 | 11.67° C | 46% | 1008 hPa | 0 mm | - | 61 W/m² | - |
| 1778017158 | 11.67° C | 49% | 1008.1 hPa | 0 mm | - | 60 W/m² | - |
| 1778016856 | 11.67° C | 51% | 1008 hPa | 0 mm | - | 69 W/m² | - |
| 1778016552 | 11.67° C | 49% | 1008 hPa | 0 mm | - | 67 W/m² | - |
| 1778016249 | 11.67° C | 49% | 1007.8 hPa | 0 mm | - | 70 W/m² | - |
| 1778015945 | 11.67° C | 48% | 1007.9 hPa | 0 mm | - | 62 W/m² | - |
| 1778015643 | 11.67° C | 49% | 1008 hPa | 0 mm | - | 63 W/m² | - |
| 1778015339 | 11.67° C | 48% | 1008.1 hPa | 0 mm | - | 77 W/m² | - |
| 1778015036 | 11.67° C | 50% | 1008.1 hPa | 0 mm | - | 74 W/m² | - |
| 1778014732 | 11.67° C | 52% | 1008.1 hPa | 0 mm | - | 82 W/m² | - |
| 1778014431 | 11.67° C | 59% | 1008 hPa | 0 mm | - | 64 W/m² | - |
| 1778014128 | 11.67° C | 61% | 1008 hPa | 0 mm | - | 64 W/m² | - |
| 1778013826 | 11.67° C | 60% | 1007.9 hPa | 0 mm | - | 63 W/m² | - |
| 1778013523 | 11.67° C | 60% | 1008 hPa | 0 mm | - | 61 W/m² | - |
| 1778013219 | 11.67° C | 61% | 1007.8 hPa | 0 mm | - | 60 W/m² | - |
* Rain latest hour (hover to see other rain measurements)
** Current wind speed in m/s (hover to see current wind gust speed)